TimeCST,TemperatureF,Dew PointF,Humidity,Sea Level PressureIn,VisibilityMPH,Wind Direction,Wind SpeedMPH,Gust SpeedMPH,PrecipitationIn,Events,Conditions,WindDirDegrees,DateUTC
12:53 AM,53.1,52.0,96,29.82,9.0,South,4.6,-,0.00,Rain,Light Rain,180,2012-12-24 06:53:00
1:53 AM,53.1,52.0,96,29.81,7.0,South,5.8,-,0.00,Rain,Light Rain,170,2012-12-24 07:53:00
2:10 AM,53.6,51.8,94,29.81,5.0,South,3.5,-,0.00,Rain,Rain,180,2012-12-24 08:10:00
2:35 AM,53.6,51.8,94,29.80,10.0,Calm,Calm,-,0.01,Rain,Light Rain,0,2012-12-24 08:35:00
2:53 AM,52.0,52.0,100,29.78,4.0,ESE,4.6,-,0.02,Rain,Rain,110,2012-12-24 08:53:00
3:53 AM,53.1,52.0,96,29.78,8.0,Calm,Calm,-,0.02,,Overcast,0,2012-12-24 09:53:00
4:05 AM,53.6,51.8,94,29.78,7.0,Calm,Calm,-,0.01,,Overcast,0,2012-12-24 10:05:00
4:53 AM,53.1,52.0,96,29.78,6.0,Calm,Calm,-,0.02,,Overcast,0,2012-12-24 10:53:00
5:20 AM,53.6,51.8,94,29.78,7.0,Calm,Calm,-,0.01,Rain,Light Rain,0,2012-12-24 11:20:00
5:53 AM,52.0,52.0,100,29.79,2.0,Calm,Calm,-,0.02,,Overcast,0,2012-12-24 11:53:00
6:05 AM,51.8,51.8,100,29.79,1.5,Calm,Calm,-,N/A,,Overcast,0,2012-12-24 12:05:00
6:50 AM,53.6,51.8,94,29.81,2.5,WNW,3.5,-,0.01,,Overcast,300,2012-12-24 12:50:00
6:53 AM,53.1,52.0,96,29.81,2.5,Calm,Calm,-,0.01,,Overcast,0,2012-12-24 12:53:00
7:03 AM,51.8,51.8,100,29.81,1.2,Calm,Calm,-,N/A,,Overcast,0,2012-12-24 13:03:00
7:26 AM,51.8,51.8,100,29.82,0.5,Calm,Calm,-,0.01,Fog,Fog,0,2012-12-24 13:26:00
7:53 AM,52.0,52.0,100,29.83,0.8,West,3.5,-,0.01,,Overcast,280,2012-12-24 13:53:00
8:01 AM,53.6,51.8,94,29.83,1.2,WNW,4.6,-,N/A,,Overcast,290,2012-12-24 14:01:00
8:12 AM,53.6,51.8,94,29.84,0.2,WNW,5.8,-,0.01,Fog,Fog,290,2012-12-24 14:12:00
8:25 AM,53.6,53.6,100,29.85,1.0,NW,5.8,-,0.01,,Overcast,310,2012-12-24 14:25:00
8:28 AM,53.6,53.6,100,29.85,3.0,WNW,8.1,-,0.01,,Overcast,290,2012-12-24 14:28:00
8:53 AM,54.0,53.1,97,29.86,8.0,NW,8.1,-,0.01,,Overcast,310,2012-12-24 14:53:00
9:05 AM,53.6,53.6,100,29.87,8.0,NNW,9.2,-,N/A,,Overcast,330,2012-12-24 15:05:00
9:53 AM,53.1,52.0,96,29.90,4.0,NNW,6.9,-,0.01,,Overcast,330,2012-12-24 15:53:00
10:53 AM,54.0,52.0,93,29.90,10.0,NW,9.2,-,N/A,,Overcast,320,2012-12-24 16:53:00
11:11 AM,53.6,51.8,94,29.90,10.0,NW,9.2,-,0.01,,Overcast,320,2012-12-24 17:11:00
11:51 AM,53.6,51.8,94,29.89,10.0,NW,8.1,-,0.01,,Overcast,320,2012-12-24 17:51:00
11:53 AM,54.0,52.0,93,29.89,10.0,NNW,5.8,-,0.01,,Overcast,330,2012-12-24 17:53:00
12:17 PM,53.6,51.8,94,29.89,10.0,NNW,9.2,-,N/A,,Overcast,340,2012-12-24 18:17:00
12:38 PM,53.6,48.2,82,29.88,10.0,NNW,9.2,-,N/A,,Overcast,330,2012-12-24 18:38:00
12:53 PM,54.0,50.0,86,29.87,10.0,NNW,8.1,-,N/A,,Overcast,340,2012-12-24 18:53:00
1:32 PM,53.6,48.2,82,29.87,10.0,NW,4.6,-,N/A,,Overcast,310,2012-12-24 19:32:00
1:53 PM,54.0,48.9,83,29.88,10.0,NW,5.8,-,0.01,,Overcast,310,2012-12-24 19:53:00
2:53 PM,53.1,48.0,83,29.88,10.0,WNW,4.6,-,N/A,,Overcast,300,2012-12-24 20:53:00
3:53 PM,52.0,48.0,86,29.92,10.0,NW,5.8,-,N/A,,Overcast,310,2012-12-24 21:53:00
4:53 PM,51.1,46.9,86,29.91,10.0,NNW,3.5,-,N/A,,Overcast,330,2012-12-24 22:53:00
5:53 PM,51.1,44.1,77,29.93,10.0,NW,5.8,-,0.01,,Overcast,320,2012-12-24 23:53:00
6:53 PM,50.0,45.0,83,29.96,10.0,NNW,11.5,-,N/A,,Overcast,330,2012-12-25 00:53:00
7:53 PM,46.0,37.9,73,29.98,10.0,North,9.2,-,N/A,,Mostly Cloudy,10,2012-12-25 01:53:00
8:14 PM,44.6,37.4,76,29.98,10.0,NNE,4.6,-,N/A,,Scattered Clouds,20,2012-12-25 02:14:00
8:53 PM,43.0,36.0,76,30.00,10.0,North,10.4,-,N/A,,Partly Cloudy,10,2012-12-25 02:53:00
9:33 PM,42.8,35.6,76,30.01,10.0,NNE,9.2,-,N/A,,Mostly Cloudy,20,2012-12-25 03:33:00
9:53 PM,43.0,35.1,74,30.02,10.0,NNE,6.9,-,N/A,,Overcast,30,2012-12-25 03:53:00
10:28 PM,41.0,33.8,76,30.01,10.0,NNE,9.2,-,N/A,,Scattered Clouds,20,2012-12-25 04:28:00
10:53 PM,39.9,34.0,79,30.02,10.0,NNE,8.1,-,N/A,,Clear,20,2012-12-25 04:53:00
11:53 PM,37.0,30.9,79,30.02,9.0,NNE,10.4,-,N/A,,Clear,20,2012-12-25 05:53:00